Home > Weather > Khan Yunis > Past weeks

Flag for Palestinian Territories Past Weather in Khan Yunis, Gaza Strip, Palestinian Territories — Yesterday and Last 2 Weeks

Now
88 °F

Sunny.


Feels Like: 94 °F
Forecast: 76 / 90 °F
Wind: 13 mph from West

Location: Ben Gurion International Airport

Current Time: Jul 25, 2016 at 1:14:32 PM

Latest Report: Jul 25, 2016 at 12:20 PM


Visibility: 10 mi

Pressure: 29.65 "Hg

Humidity: 59%

Dew Point: 72 °F

Location of Khan YunisLocation

Past Weather in Khan Yunis — Graph

°F

Khan Yunis Temperature Yesterday

Maximum temperature yesterday: 88 °F (at 11:50 AM)
Minimum temperature yesterday: 75 °F (at 4:20 AM)
Average temperature yesterday: 82 °F

High & Low Weather Summary for the Past Weeks

 TemperatureHumidityPressure
High91 °F (Jul 13, 10:20 AM)89% (Jul 11, 3:20 AM)29.89 "Hg (Jul 11, 3:20 AM)
Low73 °F (Jul 22, 5:20 AM)33% (Jul 21, 4:50 PM)29.65 "Hg (Jul 19, 11:20 AM)
Average83 °F64%29.76 "Hg
* Reported Jul 10 12:20 PM — Jul 25 12:20 PM, Khan Yunis, Weather by CustomWeather, © 2016

Note: Actual official high and low records may vary slightly from our data, if they occured in-between our weather recording intervals... More about our weather records

Advertising

Khan Yunis Weather History for the Previous 24 Hours

Scroll right to see more
 ConditionsComfort  
Time TempWeatherWind HumidityBarometerVisibility
12:20 PM
Mon, Jul 25
88 °FSunny.13 mph59%29.65 "Hg10 mi
11:20 AM88 °FPassing clouds.10 mph59%29.65 "HgN/A
10:50 AM88 °FPassing clouds.8 mph59%29.65 "HgN/A
10:20 AM88 °FPassing clouds.7 mph59%29.65 "HgN/A
9:50 AM86 °FPassing clouds.9 mph62%29.68 "HgN/A
9:20 AM84 °FScattered clouds.8 mph66%29.68 "HgN/A
8:50 AM82 °FScattered clouds.8 mph70%29.68 "HgN/A
8:20 AM82 °FPassing clouds.9 mph74%29.68 "HgN/A
7:50 AM81 °FPassing clouds.9 mph79%29.68 "HgN/A
7:20 AM79 °FScattered clouds.8 mph84%29.68 "HgN/A
6:50 AM79 °FPassing clouds.7 mph84%29.65 "HgN/A
6:20 AM79 °FPartly cloudy.7 mph79%29.65 "HgN/A
5:50 AM79 °FPassing clouds.7 mph79%29.65 "Hg6 mi
5:20 AM79 °FPassing clouds.7 mph84%29.65 "HgN/A
4:50 AM79 °FPassing clouds.7 mph79%29.65 "HgN/A
4:20 AM79 °FPassing clouds.8 mph79%29.65 "HgN/A
3:50 AM79 °FPassing clouds.6 mph79%29.65 "HgN/A
3:20 AM79 °FPassing clouds.6 mph79%29.65 "HgN/A
2:50 AM79 °FPassing clouds.7 mph79%29.65 "HgN/A
2:20 AM79 °FPassing clouds.6 mph79%29.65 "HgN/A
1:50 AM79 °FPassing clouds.6 mph79%29.65 "HgN/A
1:20 AM79 °FPassing clouds.5 mph79%29.68 "HgN/A
12:50 AM81 °FPassing clouds.5 mph79%29.68 "HgN/A
12:20 AM81 °FPassing clouds.5 mph79%29.68 "HgN/A
11:50 PM
Sun, Jul 24
81 °FPassing clouds.5 mph74%29.68 "HgN/A
11:20 PM81 °FPassing clouds.6 mph74%29.68 "HgN/A
10:50 PM81 °FPassing clouds.6 mph79%29.68 "HgN/A
10:20 PM81 °FPassing clouds.6 mph74%29.68 "HgN/A
9:50 PM81 °FPassing clouds.6 mph74%29.68 "HgN/A
9:20 PM81 °FPassing clouds.3 mph74%29.68 "HgN/A
8:50 PM81 °FPassing clouds.5 mph74%29.68 "HgN/A
8:20 PM82 °FPassing clouds.6 mph70%29.68 "HgN/A
7:50 PM82 °FPassing clouds.6 mph70%29.65 "HgN/A
7:20 PM82 °FPassing clouds.7 mph70%29.65 "HgN/A
6:50 PM84 °FPassing clouds.8 mph66%29.65 "HgN/A
6:20 PM84 °FScattered clouds.7 mph66%29.65 "HgN/A
5:50 PM86 °FScattered clouds.8 mph62%29.65 "HgN/A
5:20 PM86 °FPassing clouds.9 mph59%29.65 "HgN/A
4:50 PM86 °FPassing clouds.10 mph59%29.65 "HgN/A
4:20 PM86 °FScattered clouds.10 mph59%29.68 "HgN/A
3:50 PM86 °FScattered clouds.13 mph59%29.68 "HgN/A
3:20 PM86 °FPartly sunny.13 mph59%29.68 "HgN/A
2:50 PM86 °FScattered clouds.13 mph55%29.68 "HgN/A
2:20 PM86 °FScattered clouds.13 mph55%29.68 "HgN/A
1:50 PM88 °FScattered clouds.13 mph55%29.68 "HgN/A
1:20 PM88 °FPassing clouds.13 mph52%29.68 "HgN/A
Weather by CustomWeather, © 2016

See weather overviewHow to use our weather pages